Location: Passau
(48.5830°N, 13.4830°E)
Time: 13:31:44
(UTC+02:00)

Courier 1B - Pass Details

Date: 07 August 2021
Orbit: 963 x 1209 km, 28.3° (Epoch: 21 September)

Event Time Altitude Azimuth Distance (km) Brightness Sun altitude
Rises 21:00:14 0° 243° (WSW) 4,098 11.2 -4.6°
Reaches altitude 10° 21:04:59 10° 219° (SW) 3,140 10.3 -5.3°
Maximum altitude 21:08:16 13° 193° (SSW) 2,899 9.8 -5.7°
Drops below altitude 10° 21:11:33 10° 168° (SSE) 3,123 9.7 -6.2°
Enters shadow 21:14:43 - 150° (SSE) 3,694 10.0 -6.6°
